EW5836 Weather Reports


Display with metric or nautical units.
time (UTC)temp
F
wind
direction
speed
MPH
gust
MPH
rain 1hr
in
rain 24hr
in
rain mn
in
humidity
%
barometer
mb
20260504003552 59 342 0.0 0.0 0.00 0.00 0.00 57 1017.3
20260504003039 59 342 0.0 0.0 0.00 0.00 0.00 61 1017.3
20260504002542 59 342 0.0 0.0 0.00 0.00 0.00 61 1017.4
20260504002041 59 343 0.0 0.0 0.00 0.00 0.00 60 1017.6
20260504001601 59 343 0.0 0.0 0.00 0.00 0.00 65 1017.6
20260504001031 60 343 0.0 0.0 0.00 0.00 0.00 66 1017.6
20260504000536 60 343 0.0 0.0 0.00 0.00 0.00 62 1017.7
20260504000041 60 343 0.0 0.0 0.00 0.00 0.00 60 1017.7
20260503235544 60 343 0.0 0.0 0.00 0.00 0.00 61 1017.7
20260503235056 59 342 0.0 0.0 0.00 0.00 0.00 64 1017.7
20260503234532 60 343 0.0 0.0 0.00 0.00 0.00 66 1017.8
20260503234044 60 342 0.0 0.0 0.00 0.00 0.00 68 1017.9
20260503233548 61 343 0.0 0.0 0.00 0.00 0.00 65 1017.9
20260503233039 60 343 0.0 0.0 0.00 0.00 0.00 62 1017.9
20260503232604 60 343 0.0 0.0 0.00 0.00 0.00 62 1018.0
20260503232037 60 343 0.0 0.0 0.00 0.00 0.00 66 1018.0
20260503231543 60 343 0.0 0.0 0.00 0.00 0.00 66 1018.1
20260503231039 60 343 0.0 0.0 0.00 0.00 0.00 66 1018.3
20260503230543 60 343 0.0 0.0 0.00 0.00 0.00 66 1018.3
20260503230103 61 342 0.0 0.0 0.00 0.00 0.00 65 1018.3
20260503225533 60 343 0.0 0.0 0.00 0.00 0.00 64 1018.3
20260503225042 60 343 0.0 0.0 0.00 0.00 0.00 63 1018.3
20260503224546 60 342 0.0 0.0 0.00 0.00 0.00 64 1018.3
20260503224037 60 342 0.0 0.0 0.00 0.00 0.00 64 1018.3
20260503223542 60 343 0.0 0.0 0.00 0.00 0.00 65 1018.3
20260503223049 60 342 0.0 0.0 0.00 0.00 0.00 67 1018.4
20260503222544 60 342 0.0 0.0 0.00 0.00 0.00 67 1018.4
20260503222036 60 342 0.0 0.0 0.00 0.00 0.00 67 1018.4
20260503221539 60 343 0.0 0.0 0.00 0.00 0.00 67 1018.4
20260503221057 60 343 0.0 0.0 0.00 0.00 0.00 66 1018.4
20260503220600 60 342 0.0 0.0 0.00 0.00 0.00 67 1018.4
20260503220043 60 342 0.0 0.0 0.00 0.00 0.00 68 1018.3
20260503215537 60 342 0.0 0.0 0.00 0.00 0.00 68 1018.3
20260503215058 60 343 0.0 0.0 0.00 0.00 0.00 69 1018.3
20260503214536 60 343 0.0 0.0 0.00 0.00 0.00 66 1018.3
20260503214047 60 343 0.0 0.0 0.00 0.00 0.00 68 1018.3
20260503213610 60 343 0.0 0.0 0.00 0.00 0.00 68 1018.3
20260503213040 60 343 0.0 0.0 0.00 0.00 0.00 68 1018.3
20260503212545 60 343 0.0 0.0 0.00 0.00 0.00 69 1018.3
20260503212037 61 343 0.0 0.0 0.00 0.00 0.00 68 1018.3
20260503211542 61 343 0.0 0.0 0.00 0.00 0.00 67 1018.2
20260503211050 61 343 0.0 0.0 0.00 0.00 0.00 66 1018.3
20260503210554 61 343 0.0 0.0 0.00 0.00 0.00 67 1018.2
20260503210044 62 343 0.0 0.0 0.00 0.00 0.00 66 1018.2
20260503205549 62 343 0.0 0.0 0.00 0.00 0.00 65 1018.3
20260503205038 62 343 0.0 0.0 0.00 0.00 0.00 63 1018.2
20260503204542 62 343 0.0 0.0 0.00 0.00 0.00 63 1018.2
20260503204036 62 342 0.0 0.0 0.00 0.00 0.00 63 1018.2
20260503203542 62 343 0.0 0.0 0.00 0.00 0.00 64 1018.2
20260503203039 62 343 0.0 0.0 0.00 0.00 0.00 62 1018.3
20260503202601 63 342 0.0 0.0 0.00 0.00 0.00 59 1018.3
20260503202032 63 343 0.0 0.0 0.00 0.00 0.00 59 1018.2
20260503201537 63 342 0.0 0.0 0.00 0.00 0.00 59 1018.2
20260503201046 63 343 0.0 0.0 0.00 0.00 0.00 59 1018.2
20260503200550 64 343 0.0 0.0 0.00 0.00 0.00 58 1018.2
20260503200040 64 343 0.0 0.0 0.00 0.00 0.00 56 1018.2
20260503195545 63 342 0.0 0.0 0.00 0.00 0.00 56 1018.2
20260503195038 63 342 0.0 0.0 0.00 0.00 0.00 58 1018.1
20260503194542 64 342 0.0 0.0 0.00 0.00 0.00 58 1018.1
20260503194036 64 342 0.0 0.0 0.00 0.00 0.00 57 1018.1
20260503193557 65 343 0.0 0.0 0.00 0.00 0.00 56 1018.0
20260503193055 65 343 0.0 0.0 0.00 0.00 0.00 56 1018.0
20260503192532 65 342 0.0 0.0 0.00 0.00 0.00 55 1018.0
20260503192045 65 343 0.0 0.0 0.00 0.00 0.00 56 1017.9
20260503191549 65 343 0.0 0.0 0.00 0.00 0.00 56 1017.9
20260503191039 65 343 0.0 0.0 0.00 0.00 0.00 57 1017.9
20260503190544 65 343 0.0 0.0 0.00 0.00 0.00 58 1017.8
20260503190036 65 343 0.0 0.0 0.00 0.00 0.00 62 1017.8
20260503185552 65 343 0.0 0.0 0.00 0.00 0.00 62 1017.7
20260503185042 65 343 0.0 0.0 0.00 0.00 0.00 63 1017.7
20260503184547 65 343 0.0 0.0 0.00 0.00 0.00 64 1017.7
20260503184037 65 342 0.0 0.0 0.00 0.00 0.00 65 1017.6
20260503183543 66 343 0.0 0.0 0.00 0.00 0.00 65 1017.7
20260503183035 66 342 0.0 0.0 0.00 0.00 0.00 63 1017.6
20260503182559 66 343 0.0 0.0 0.00 0.00 0.00 62 1017.5
20260503182049 66 342 0.0 0.0 0.00 0.00 0.00 62 1017.4
20260503181534 66 343 0.0 0.0 0.00 0.00 0.00 61 1017.4
20260503181039 66 343 0.0 0.0 0.00 0.00 0.00 62 1017.3
20260503180544 67 343 0.0 0.0 0.00 0.00 0.00 60 1017.3
20260503180035 67 343 0.0 0.0 0.00 0.00 0.00 59 1017.3
20260503175538 68 343 0.0 0.0 0.00 0.00 0.00 58 1017.3
20260503175059 68 343 0.0 0.0 0.00 0.00 0.00 58 1017.2
20260503174535 68 343 0.0 0.0 0.00 0.00 0.00 58 1017.2
20260503174044 68 343 0.0 0.0 0.00 0.00 0.00 57 1017.3
20260503173549 69 343 0.0 0.0 0.00 0.00 0.00 57 1017.3
20260503173042 69 4 0.0 0.0 0.00 0.00 0.00 56 1017.4
20260503172546 69 4 0.0 0.0 0.00 0.00 0.00 56 1017.4
20260503172037 69 18 0.0 0.0 0.00 0.00 0.00 56 1017.5
20260503171530 69 43 0.0 0.0 0.00 0.00 0.00 55 1017.5
20260503171038 69 43 0.0 0.0 0.00 0.00 0.00 54 1017.5
20260503170545 69 43 0.0 0.0 0.00 0.00 0.00 54 1017.5
20260503150606 69 141 0.0 0.0 0.00 0.00 0.00 53 1017.9
20260503131043 70 129 0.0 0.0 0.00 0.00 0.00 52 1019.0
20260503130548 70 129 0.0 0.0 0.00 0.00 0.00 53 1019.0
20260503110544 68 167 0.0 7.0 0.00 0.00 0.00 55 1019.5
20260503081547 64 156 0.0 0.0 0.00 0.00 0.00 70 1020.1
20260503081054 64 156 0.0 0.0 0.00 0.00 0.00 69 1020.0
20260503080538 64 156 0.0 0.0 0.00 0.00 0.00 67 1020.0
20260503072646 62 151 0.0 0.0 0.00 0.00 0.00 67 1019.9
20260503072047 62 152 0.0 0.0 0.00 0.00 0.00 68 1019.9
20260503071549 61 152 0.0 0.0 0.00 0.00 0.00 68 1020.0
20260503071037 61 160 0.0 0.0 0.00 0.00 0.00 70 1020.0
20260503070540 60 160 0.0 0.0 0.00 0.00 0.00 73 1020.0
20260503055046 59 319 0.0 0.0 0.00 0.00 0.00 73 1020.0
20260503054550 58 319 0.0 0.0 0.00 0.00 0.00 75 1020.0
20260503054039 58 319 0.0 0.0 0.00 0.00 0.00 74 1020.0
20260503053605 57 319 0.0 0.0 0.00 0.00 0.00 76 1020.0
20260503053033 57 319 0.0 0.0 0.00 0.00 0.00 77 1019.9
20260503052536 57 319 0.0 0.0 0.00 0.00 0.00 77 1019.9
20260503052045 56 319 0.0 0.0 0.00 0.00 0.00 77 1019.9
20260503051550 56 319 0.0 0.0 0.00 0.00 0.00 77 1019.8
20260503051045 56 319 0.0 0.0 0.00 0.00 0.00 75 1019.8
20260503050549 56 319 0.0 0.0 0.00 0.00 0.00 74 1019.8
20260503050039 56 319 0.0 0.0 0.00 0.00 0.00 75 1019.8
20260503045541 56 319 0.0 0.0 0.00 0.00 0.00 75 1019.8
20260503045059 56 319 0.0 0.0 0.00 0.00 0.00 75 1019.8
20260503044541 56 319 0.0 0.0 0.00 0.00 0.00 75 1019.8
20260503044031 56 319 0.0 0.0 0.00 0.00 0.00 75 1019.8
20260503043533 55 319 0.0 0.0 0.00 0.00 0.00 76 1019.8
20260503043042 55 319 0.0 0.0 0.00 0.00 0.00 76 1019.8
20260503042547 56 319 0.0 0.0 0.00 0.00 0.00 76 1019.8
20260503042100 56 319 0.0 0.0 0.00 0.00 0.00 76 1019.8
20260503041544 56 319 0.0 0.0 0.00 0.00 0.00 75 1019.8
20260503041034 56 319 0.0 0.0 0.00 0.00 0.00 74 1019.9
20260503040539 56 319 0.0 0.0 0.00 0.00 0.00 74 1019.9
20260503040031 56 319 0.0 0.0 0.00 0.00 0.00 73 1020.0
20260503035556 56 319 0.0 0.0 0.00 0.00 0.00 74 1019.9
20260503035042 56 319 0.0 0.0 0.00 0.00 0.00 74 1019.9
20260503034545 56 319 0.0 0.0 0.00 0.00 0.00 73 1019.9
20260503034035 57 319 0.0 0.0 0.00 0.00 0.00 72 1020.1
20260503033537 57 319 0.0 0.0 0.00 0.00 0.00 72 1020.0
20260503033049 57 319 0.0 0.0 0.00 0.00 0.00 72 1020.1
20260503032530 57 319 0.0 0.0 0.00 0.00 0.00 71 1020.1
20260503032042 57 319 0.0 0.0 0.00 0.00 0.00 71 1020.2
20260503031606 57 319 0.0 0.0 0.00 0.00 0.00 72 1020.2
20260503031103 56 319 0.0 0.0 0.00 0.00 0.00 73 1020.2
20260503030547 56 319 0.0 0.0 0.00 0.00 0.00 74 1020.2
20260503030039 56 319 0.0 0.0 0.00 0.00 0.00 73 1020.3
20260503025537 56 319 0.0 0.0 0.00 0.00 0.00 73 1020.3
20260503025048 56 319 0.0 0.0 0.00 0.00 0.00 73 1020.3
20260503024532 56 319 0.0 0.0 0.00 0.00 0.00 74 1020.3
20260503024039 56 319 0.0 0.0 0.00 0.00 0.00 74 1020.3
20260503023543 56 319 0.0 0.0 0.00 0.00 0.00 74 1020.3
20260503023040 56 319 0.0 1.0 0.00 0.00 0.00 74 1020.3
20260503022544 56 319 0.0 1.0 0.00 0.00 0.00 74 1020.3
20260503022105 57 319 0.0 0.0 0.00 0.00 0.00 73 1020.3
20260503021605 57 319 0.0 0.0 0.00 0.00 0.00 73 1020.3
20260503021032 57 319 0.0 0.0 0.00 0.00 0.00 73 1020.4
20260503020537 57 319 0.0 0.0 0.00 0.00 0.00 74 1020.4
20260503020030 57 319 0.0 0.0 0.00 0.00 0.00 73 1020.4
20260503015555 57 319 0.0 0.0 0.00 0.00 0.00 73 1020.3
20260503015046 57 319 0.0 0.0 0.00 0.00 0.00 72 1020.3
20260503014608 57 319 0.0 0.0 0.00 0.00 0.00 73 1020.3
20260503014039 57 319 0.0 0.0 0.00 0.00 0.00 74 1020.4
20260503013541 57 319 0.0 0.0 0.00 0.00 0.00 74 1020.4
20260503013101 56 319 0.0 0.0 0.00 0.00 0.00 75 1020.4
20260503012544 57 319 0.0 0.0 0.00 0.00 0.00 75 1020.4
20260503012041 57 319 0.0 0.0 0.00 0.00 0.00 74 1020.4
20260503011545 57 319 0.0 0.0 0.00 0.00 0.00 74 1020.4
20260503011044 57 319 0.0 0.0 0.00 0.00 0.00 73 1020.5
20260503010548 57 319 0.0 0.0 0.00 0.00 0.00 73 1020.6
20260503010057 57 319 0.0 0.0 0.00 0.00 0.00 73 1020.6
20260503005532 57 319 0.0 0.0 0.00 0.00 0.00 74 1020.6
20260503005109 58 319 0.0 0.0 0.00 0.00 0.00 73 1020.7
20260503004550 58 319 0.0 0.0 0.00 0.00 0.00 73 1020.7
20260503004045 58 319 0.0 0.0 0.00 0.00 0.00 72 1020.8